Content
SEND FEEDBACK

Daily
Averages
Monthly
Summary
United States of America

NEW YORK - UPPER EAST SIDE, NEW YORK


Home > North America > United States > New York
Elevation: 132 feet     Latitude: 40 47N     Longitude: 073 58W

WEATHER
 
SELECT A DAY
Number of Records: 152,993;   Date Range: 11/1/95 - 12/18/14
 
SHARE

PRINT THIS DATA

[ ← Previous Day ]
WEATHER ALMANAC - APRIL 25, 2014
[ Next Day → ]
[ °C ]   °F
Weather ElementAverageHighLow
Temperature52.3 °F61 °F (12:51 pm)46 °F (3:51 am)
Dewpoint23.5 °F39 °F (11:51 pm)17.1 °F (1:51 am)
Humidity34.3 %63 % (11:51 pm)21 % (11:51 am)
Barometer29.95 in30.05 in (7:51 am)29.78 in (11:51 pm)
Wind Speed4.7 mph10.4 mph (9:51 pm)
Wind Gust20.7 mph (5:51 pm)
Weather ElementAverage
Visibility10 mi
Wind DirectionNNE (20 °)

Weather ElementTotal
Precipitation---
Heating Degree Days11.5 (Base 65)
Growing Degree Days3.5 (Base 50)
Averaged from 23 records on April 25, 2014
WEATHER CONDITIONS BREAKOUT
WIND DIRECTION BREAKOUT
WEATHER BY HOUR - APRIL 25, 2014
[ °C ]   °F
Local TimeTemperatureDewpointHumidityBarometerVisibilityWind DirectionWind SpeedGust SpeedPrecipitationEventsConditions
1:51 AM48.9 °F17.1 °F28 %30.02 in10.0 miVariable4.6 mphClear
2:51 AM46.9 °F18.0 °F32 %30.02 in10.0 miCalmClear
3:51 AM46.0 °F18.0 °F33 %30.01 in10.0 miVariable5.8 mphClear
4:51 AM46.0 °F18.0 °F33 %30.00 in10.0 miNNE (30°)4.6 mphClear
5:51 AM46.0 °F19.0 °F34 %30.03 in10.0 miCalmClear
6:51 AM46.0 °F19.0 °F34 %30.04 in10.0 miCalmClear
7:51 AM48.0 °F19.9 °F33 %30.05 in10.0 miCalmClear
8:51 AM52.0 °F19.9 °F28 %30.05 in10.0 miNE (40°)5.8 mphClear
9:51 AM55.0 °F19.9 °F25 %30.04 in10.0 miVariable4.6 mphClear
10:51 AM57.0 °F19.9 °F24 %30.02 in10.0 miENE (60°)8.1 mphClear
11:51 AM59.0 °F19.0 °F21 %30.00 in10.0 miVariable3.5 mphClear
12:51 PM61.0 °F21.0 °F21 %29.98 in10.0 miVariable5.8 mphClear
1:51 PM60.1 °F19.9 °F21 %29.96 in10.0 miVariable6.9 mphClear
2:51 PM60.1 °F21.0 °F22 %29.94 in10.0 miNorthClear
3:51 PM55.9 °F21.9 °F27 %29.91 in10.0 miVariable3.5 mph17.3 mphClear
4:51 PM55.9 °F25.0 °F30 %29.89 in10.0 miVariable4.6 mphClear
5:51 PM53.1 °F25.0 °F34 %29.87 in10.0 miVariable6.9 mph20.7 mphClear
6:51 PM52.0 °F28.0 °F40 %29.86 in10.0 miVariable5.8 mphClear
7:51 PM50.0 °F28.9 °F44 %29.86 in10.0 miVariable6.9 mphPartly Cloudy
8:51 PM52.0 °F30.0 °F43 %29.88 in10.0 miVariable4.6 mphOvercast
9:51 PM51.1 °F36.0 °F56 %29.84 in10.0 miSouth (170°)10.4 mphOvercast
10:51 PM50.0 °F37.4 °F62 %29.84 in10.0 miNorthOvercast
11:51 PM51.1 °F39.0 °F63 %29.78 in10.0 miSSE (160°)5.8 mph16.1 mph0.00 inRainLight Rain
Hourly data recorded from KNYC, located miles away from New York - Upper East Side, New York







STORIES FROM OUR PARTNERS